Flag for Germany Weather past 2 weeks in Deggendorf, Bavaria, Germany

Now
66 °F

Partly sunny.


Feels Like: 66 °F
Forecast: 56 / 86 °F
Wind: 5 mph from Southeast

Location: Straubing

Current Time: Aug 3, 2015 at 10:50:19 AM

Latest Report: Aug 3, 2015 at 10:00 AM


Visibility: 4 mi

Pressure: 30.11 "Hg

Humidity: 79%

Dew point: 59 °F

Location of DeggendorfLocation

Historic Weather in Deggendorf — Graph

°F

Deggendorf temperature yesterday

Maximum temperature yesterday: 76 °F (at 5:00 PM)
Minimum temperature yesterday: 61 °F (at 7:00 AM)
Average temperature yesterday: 68 °F

Past Weeks' High & Low Weather Summary

 TemperatureHumidityPressure
High94 °F (Jul 22, 6:00 PM)100% (Aug 3, 3:00 AM)30.13 "Hg (Aug 3, 3:00 AM)
Low47 °F (Jul 30, 3:00 AM)30% (Jul 22, 4:00 PM)29.67 "Hg (Jul 27, 3:00 PM)
Average69 °F64%29.91 "Hg
* Reported Jul 19 10:00 AM — Aug 3 10:00 AM, Deggendorf, Weather by CustomWeather, © 2015

Note: Actual official high and low records may vary slightly from our data, if they occured in-between our weather recording intervals... More about our weather records

Advertising

Deggendorf weather history for previous 24 hours

 ConditionsComfort  
Time TempWeatherWind HumidityBarometerVisibility
10:00 AM
Mon, Aug 3
66 °FPartly sunny.5 mph79%30.11 "Hg4 mi
9:00 AM64 °FFog.3 mph91%30.11 "Hg2 mi
8:00 AM62 °FFog.2 mph95%30.11 "Hg2 mi
7:00 AM59 °FPartly sunny.2 mph100%30.12 "Hg1 mi
6:00 AM56 °FDense fog.1 mph100%30.12 "Hg0 mi
4:00 AM57 °FClear.3 mph100%30.11 "Hg1 mi
3:00 AM56 °FClear.2 mph100%30.13 "Hg1 mi
2:00 AM59 °FFog.1 mph99%30.12 "Hg1 mi
1:00 AM58 °FFog.2 mph98%30.13 "Hg1 mi
10:00 PM
Sun, Aug 2
63 °FPassing clouds.3 mph89%30.11 "Hg7 mi
9:00 PM66 °FPassing clouds.3 mph78%30.09 "Hg17 mi
8:00 PM70 °FSunny.5 mph70%30.07 "Hg18 mi
7:00 PM73 °FSunny.6 mph63%30.06 "Hg15 mi
6:00 PM74 °FOvercast.8 mph61%30.06 "Hg9 mi
5:00 PM76 °FOvercast.3 mph52%30.06 "Hg19 mi
4:00 PM75 °FOvercast.2 mph53%30.07 "Hg25 mi
3:00 PM74 °FOvercast.1 mph50%30.08 "Hg22 mi
2:00 PM72 °FOvercast.2 mph57%30.09 "Hg19 mi
1:00 PM72 °FOvercast.1 mph58%30.10 "Hg17 mi
12:00 PM68 °FOvercast.2 mph68%30.09 "Hg13 mi
11:00 AM65 °FOvercast.2 mph76%30.09 "Hg10 mi
10:00 AM63 °FOvercast.2 mph80%30.08 "Hg11 mi
Weather by CustomWeather, © 2015

See weather overviewHow to use our weather pages